Location: Monrovia
(34.7865°N, 86.7139°W)
Time: 00:44:51
(UTC+00:00)

Cosmos 1680 Rocket - Pass Details

Date: 14 July 2020
Orbit: 760 x 781 km, 74.1° (Epoch: 12 August)

Event Time Altitude Azimuth Distance (km) Brightness Sun altitude
Exits shadow 02:42:43 - 199° (SSW) 3,144 6.4 -17.8°
Reaches altitude 10° 02:44:50 10° 200° (SSW) 2,323 5.8 -18.1°
Maximum altitude 02:50:07 80° 288° (WNW) 797 3.6 -18.9°
Drops below altitude 10° 02:55:27 10° 15° (NNE) 2,339 6.4 -19.6°
Sets 02:57:51 0° 16° (NNE) 3,269 7.2 -20.0°
